Find Starlink 4027

NORAD ID: 52601 Int'l Des: 2022-052 Owner: SPXS Country: US Constellation: starlink operational
LEOCIRCULAR

当前视图

正在加载3D地球...

About Starlink 4027

Starlink 4027 (NORAD 52601) is a starlink constellation satellite (v1.5) launched May 14, 2022 by SPXS of US. It operates in LEO, CIRCULAR orbit with a mass of 297.00 kg.

关于 Starlink 4027

正在加载描述...

即将过境

Passes for default location (London). Set your location on the main map for personalized predictions.

高度历史

Loading altitude history...

两行轨道根数

1 52601U 22052D 26168.35815647 .00000473 00000-0 47849-4 0 9997
2 52601 53.1586 191.5943 0001225 90.8998 269.2134 15.08821551226709
Epoch: Jun 17, 2026 • Age: 25 hours

当前状态

高度 550.9 km
速度 7.59 km/s
星下点 -33.31°S, 103.28°E
发射日期 May 14, 2022
运行时间 4 years
类型 internet

技术详情

分类 Payload
质量 297.00 kg
干质量 275.00 kg
总质量 297.00 kg
长度 0.20 m
直径 2.80 m
跨度 9.00 m
形状 Box + pan
制造商 SPXS
平台类型 Starlink
阶段状态 In Orbit
所有者/国家 SPXS/US

Most Searched